Time,TemperatureF,DewpointF,PressureIn,WindDirection,WindDirectionDegrees,WindSpeedMPH,WindSpeedGustMPH,Humidity,HourlyPrecipIn,Conditions,Clouds,dailyrainin,SoftwareType,DateUTC
2013-01-10 00:01:00,38.0,38.0,30.05,North,0,0.0,0.0,100,0.03,,,0.07,,2013-01-10 08:01:00,
2013-01-10 00:11:00,38.0,38.0,30.05,North,0,0.0,0.0,100,0.03,,,0.07,,2013-01-10 08:11:00,
2013-01-10 00:21:00,38.0,38.0,30.05,North,0,0.0,0.0,100,0.02,,,0.07,,2013-01-10 08:21:00,
2013-01-10 00:32:00,37.0,37.0,30.06,North,0,0.0,0.0,100,0.03,,,0.07,,2013-01-10 08:32:00,
2013-01-10 00:42:00,37.0,37.0,30.06,North,0,0.0,0.0,100,0.03,,,0.07,,2013-01-10 08:42:00,
2013-01-10 00:52:00,37.0,37.0,30.06,North,0,0.0,0.0,100,0.03,,,0.07,,2013-01-10 08:52:00,
2013-01-10 01:02:00,37.0,37.0,30.06,North,0,0.0,1.0,100,0.03,,,0.07,,2013-01-10 09:02:00,
2013-01-10 01:11:00,37.0,37.0,30.06,North,0,0.0,1.0,100,0.03,,,0.07,,2013-01-10 09:11:00,
2013-01-10 01:22:00,37.0,37.0,30.06,North,0,0.0,0.0,100,0.03,,,0.07,,2013-01-10 09:22:00,
2013-01-10 01:32:00,37.0,37.0,30.07,North,0,0.0,0.0,100,0.03,,,0.10,,2013-01-10 09:32:00,
2013-01-10 01:42:00,37.0,37.0,30.07,North,0,0.0,0.0,100,0.03,,,0.10,,2013-01-10 09:42:00,
2013-01-10 01:52:00,37.0,37.0,30.07,North,0,0.0,0.0,100,0.03,,,0.10,,2013-01-10 09:52:00,
2013-01-10 02:02:00,36.0,36.0,30.07,North,0,0.0,0.0,100,0.02,,,0.10,,2013-01-10 10:02:00,
2013-01-10 02:11:00,36.0,36.0,30.07,North,0,0.0,0.0,100,0.02,,,0.10,,2013-01-10 10:11:00,
2013-01-10 02:22:00,36.0,36.0,30.08,North,0,0.0,4.0,100,0.02,,,0.10,,2013-01-10 10:22:00,
2013-01-10 02:32:00,36.0,36.0,30.09,North,0,0.0,0.0,100,0.01,,,0.12,,2013-01-10 10:32:00,
2013-01-10 02:42:00,36.0,36.0,30.09,North,0,0.0,0.0,100,0.01,,,0.12,,2013-01-10 10:42:00,
2013-01-10 02:52:00,36.0,36.0,30.09,North,0,0.0,0.0,100,0.00,,,0.12,,2013-01-10 10:52:00,
2013-01-10 03:02:00,36.0,36.0,30.09,North,0,0.0,0.0,100,0.01,,,0.12,,2013-01-10 11:02:00,
2013-01-10 03:12:00,36.0,36.0,30.09,North,0,0.0,0.0,100,0.01,,,0.12,,2013-01-10 11:12:00,
2013-01-10 03:22:00,36.0,36.0,30.09,North,0,0.0,0.0,100,0.02,,,0.12,,2013-01-10 11:22:00,
2013-01-10 03:32:00,36.0,36.0,30.10,North,0,0.0,0.0,100,0.02,,,0.14,,2013-01-10 11:32:00,
2013-01-10 03:42:00,36.0,36.0,30.10,North,0,0.0,0.0,100,0.02,,,0.14,,2013-01-10 11:42:00,
2013-01-10 03:52:00,36.0,36.0,30.10,North,0,0.0,0.0,100,0.02,,,0.14,,2013-01-10 11:52:00,
2013-01-10 04:02:00,36.0,36.0,30.10,North,0,0.0,0.0,100,0.00,,,0.14,,2013-01-10 12:02:00,
2013-01-10 04:11:00,36.0,36.0,30.10,North,0,0.0,0.0,100,0.00,,,0.14,,2013-01-10 12:11:00,
2013-01-10 04:22:00,36.0,36.0,30.10,North,0,0.0,0.0,100,0.00,,,0.14,,2013-01-10 12:22:00,
2013-01-10 04:32:00,36.0,36.0,30.10,North,0,0.0,0.0,100,0.00,,,0.14,,2013-01-10 12:32:00,
2013-01-10 04:42:00,36.0,36.0,30.10,North,0,0.0,0.0,100,0.00,,,0.14,,2013-01-10 12:42:00,
2013-01-10 04:53:00,36.0,36.0,30.10,North,0,0.0,0.0,100,0.00,,,0.14,,2013-01-10 12:53:00,
2013-01-10 05:01:00,36.0,36.0,30.10,North,0,0.0,0.0,100,0.02,,,0.14,,2013-01-10 13:01:00,
2013-01-10 05:11:00,36.0,36.0,30.10,North,0,0.0,0.0,100,0.02,,,0.14,,2013-01-10 13:11:00,
2013-01-10 05:22:00,36.0,36.0,30.10,North,0,0.0,0.0,100,0.03,,,0.14,,2013-01-10 13:22:00,
2013-01-10 05:32:00,35.0,35.0,30.10,North,0,0.0,0.0,100,0.03,,,0.17,,2013-01-10 13:32:00,
2013-01-10 05:42:00,35.0,35.0,30.10,North,0,0.0,0.0,100,0.03,,,0.17,,2013-01-10 13:42:00,
2013-01-10 05:52:00,35.0,35.0,30.10,North,0,0.0,0.0,100,0.02,,,0.17,,2013-01-10 13:52:00,
2013-01-10 06:01:00,36.0,36.0,30.11,North,0,0.0,0.0,100,0.02,,,0.17,,2013-01-10 14:01:00,
2013-01-10 06:11:00,36.0,36.0,30.11,North,0,0.0,0.0,100,0.02,,,0.17,,2013-01-10 14:11:00,
2013-01-10 06:22:00,35.0,35.0,30.11,NE,51,0.0,3.0,100,0.07,,,0.19,,2013-01-10 14:22:00,
2013-01-10 06:32:00,35.0,35.0,30.13,North,0,0.0,7.0,100,0.14,,,0.26,,2013-01-10 14:32:00,
2013-01-10 06:42:00,35.0,35.0,30.13,North,0,0.0,7.0,100,0.14,,,0.26,,2013-01-10 14:42:00,
2013-01-10 06:53:00,35.0,35.0,30.14,NNE,18,0.0,6.0,100,0.14,,,0.27,,2013-01-10 14:53:00,
2013-01-10 07:02:00,37.0,37.0,30.14,North,8,2.0,16.0,100,0.21,,,0.33,,2013-01-10 15:02:00,
2013-01-10 07:12:00,37.0,37.0,30.14,North,8,2.0,16.0,100,0.21,,,0.33,,2013-01-10 15:12:00,
2013-01-10 07:22:00,37.0,37.0,30.14,North,0,0.0,0.0,100,0.17,,,0.35,,2013-01-10 15:22:00,
2013-01-10 07:32:00,37.0,37.0,30.13,North,0,0.0,0.0,100,0.15,,,0.41,,2013-01-10 15:32:00,
2013-01-10 07:42:00,37.0,37.0,30.13,North,0,0.0,0.0,100,0.15,,,0.41,,2013-01-10 15:42:00,
2013-01-10 07:53:00,36.0,36.0,30.14,North,0,0.0,6.0,100,0.08,,,0.41,,2013-01-10 15:53:00,
2013-01-10 08:02:00,38.0,38.0,30.14,North,352,5.0,21.0,100,0.10,,,0.45,,2013-01-10 16:02:00,
2013-01-10 08:12:00,38.0,38.0,30.14,North,352,5.0,21.0,100,0.10,,,0.45,,2013-01-10 16:12:00,
2013-01-10 08:22:00,38.0,38.0,30.14,North,0,0.0,11.0,100,0.14,,,0.49,,2013-01-10 16:22:00,
2013-01-10 08:32:00,37.0,37.0,30.15,NNW,338,0.0,11.0,100,0.14,,,0.55,,2013-01-10 16:32:00,
2013-01-10 08:42:00,37.0,37.0,30.15,NNW,338,0.0,11.0,100,0.14,,,0.55,,2013-01-10 16:42:00,
2013-01-10 08:53:00,40.0,40.0,30.14,NW,309,2.0,21.0,100,0.14,,,0.55,,2013-01-10 16:53:00,
2013-01-10 09:02:00,39.0,39.0,30.15,North,0,0.0,0.0,100,0.12,,,0.55,,2013-01-10 17:02:00,
2013-01-10 09:11:00,39.0,39.0,30.15,North,0,0.0,0.0,100,0.12,,,0.55,,2013-01-10 17:11:00,
2013-01-10 09:22:00,38.0,38.0,30.15,North,0,0.0,0.0,100,0.07,,,0.55,,2013-01-10 17:22:00,
2013-01-10 09:33:00,38.0,38.0,30.15,North,0,0.0,2.0,100,0.03,,,0.58,,2013-01-10 17:33:00,
2013-01-10 09:42:00,38.0,38.0,30.15,North,0,0.0,2.0,100,0.03,,,0.58,,2013-01-10 17:42:00,
2013-01-10 09:52:00,38.0,38.0,30.16,North,0,0.0,0.0,100,0.02,,,0.58,,2013-01-10 17:52:00,
2013-01-10 10:03:00,38.0,38.0,30.16,North,0,0.0,0.0,100,0.02,,,0.58,,2013-01-10 18:03:00,
2013-01-10 10:12:00,38.0,38.0,30.16,North,0,0.0,0.0,100,0.02,,,0.58,,2013-01-10 18:12:00,
2013-01-10 10:22:00,38.0,38.0,30.16,North,0,0.0,0.0,100,0.02,,,0.58,,2013-01-10 18:22:00,
2013-01-10 10:32:00,39.0,39.0,30.17,North,0,0.0,0.0,100,0.02,,,0.60,,2013-01-10 18:32:00,
2013-01-10 10:43:00,39.0,39.0,30.17,North,0,0.0,0.0,100,0.02,,,0.60,,2013-01-10 18:43:00,
2013-01-10 10:52:00,39.0,39.0,30.17,North,0,0.0,0.0,100,0.02,,,0.60,,2013-01-10 18:52:00,
2013-01-10 11:02:00,41.0,41.0,30.17,North,0,0.0,0.0,100,0.02,,,0.60,,2013-01-10 19:02:00,
2013-01-10 11:12:00,41.0,41.0,30.16,North,0,0.0,0.0,100,0.01,,,0.60,,2013-01-10 19:12:00,
2013-01-10 11:22:00,41.0,41.0,30.16,North,0,0.0,0.0,100,0.01,,,0.60,,2013-01-10 19:22:00,
2013-01-10 11:32:00,41.0,41.0,30.16,North,0,0.0,0.0,100,0.01,,,0.61,,2013-01-10 19:32:00,
2013-01-10 11:42:00,41.0,41.0,30.16,North,0,0.0,0.0,100,0.01,,,0.61,,2013-01-10 19:42:00,
2013-01-10 11:53:00,41.0,41.0,30.15,North,0,0.0,0.0,100,0.01,,,0.61,,2013-01-10 19:53:00,
2013-01-10 12:02:00,42.0,42.0,30.16,West,281,10.0,18.0,100,0.01,,,0.61,,2013-01-10 20:02:00,
2013-01-10 12:11:00,43.0,43.0,30.15,NNW,334,6.0,17.0,100,0.01,,,0.61,,2013-01-10 20:11:00,
2013-01-10 12:22:00,43.0,43.0,30.15,NNW,334,6.0,17.0,100,0.01,,,0.61,,2013-01-10 20:22:00,
2013-01-10 12:32:00,44.0,43.0,30.15,North,8,10.0,23.0,96,0.01,,,0.62,,2013-01-10 20:32:00,
2013-01-10 12:42:00,44.0,43.0,30.15,North,8,10.0,23.0,96,0.01,,,0.62,,2013-01-10 20:42:00,
2013-01-10 12:53:00,44.0,43.0,30.15,NW,326,8.0,23.0,96,0.00,,,0.62,,2013-01-10 20:53:00,
2013-01-10 13:02:00,44.0,42.0,30.15,ENE,72,9.0,15.0,94,0.00,,,0.62,,2013-01-10 21:02:00,
2013-01-10 13:11:00,44.0,42.0,30.16,NNE,21,12.0,23.0,94,0.00,,,0.62,,2013-01-10 21:11:00,
2013-01-10 13:22:00,44.0,42.0,30.16,NNE,21,12.0,23.0,94,0.00,,,0.62,,2013-01-10 21:22:00,
2013-01-10 13:32:00,43.0,42.0,30.15,ENE,71,3.0,10.0,96,0.00,,,0.62,,2013-01-10 21:32:00,
2013-01-10 13:42:00,43.0,42.0,30.15,ENE,71,3.0,10.0,96,0.00,,,0.62,,2013-01-10 21:42:00,
2013-01-10 13:53:00,44.0,42.0,30.16,North,2,6.0,19.0,94,0.00,,,0.62,,2013-01-10 21:53:00,
2013-01-10 14:02:00,44.0,42.0,30.16,ESE,112,2.0,22.0,93,0.00,,,0.62,,2013-01-10 22:02:00,
2013-01-10 14:12:00,45.0,43.0,30.16,North,357,2.0,15.0,92,0.00,,,0.62,,2013-01-10 22:12:00,
2013-01-10 14:22:00,45.0,43.0,30.16,North,357,2.0,15.0,92,0.00,,,0.62,,2013-01-10 22:22:00,
2013-01-10 14:32:00,45.0,42.0,30.16,North,357,5.0,17.0,90,0.00,,,0.62,,2013-01-10 22:32:00,
2013-01-10 14:42:00,45.0,42.0,30.16,North,357,5.0,17.0,90,0.00,,,0.62,,2013-01-10 22:42:00,
2013-01-10 15:02:00,44.0,42.0,30.18,NNE,33,1.0,12.0,93,0.00,,,0.62,,2013-01-10 23:02:00,
2013-01-10 15:12:00,44.0,42.0,30.17,NNE,28,0.0,14.0,92,0.00,,,0.62,,2013-01-10 23:12:00,
2013-01-10 15:22:00,44.0,42.0,30.17,NNE,28,0.0,14.0,92,0.00,,,0.62,,2013-01-10 23:22:00,
2013-01-10 15:32:00,43.0,41.0,30.18,NNE,22,4.0,16.0,93,0.00,,,0.62,,2013-01-10 23:32:00,
2013-01-10 15:42:00,43.0,41.0,30.18,NNE,22,4.0,16.0,93,0.00,,,0.62,,2013-01-10 23:42:00,
2013-01-10 15:53:00,42.0,41.0,30.18,NE,44,3.0,7.0,96,0.01,,,0.62,,2013-01-10 23:53:00,
2013-01-10 16:02:00,41.0,40.0,30.19,North,0,0.0,9.0,97,0.02,,,0.62,,2013-01-11 00:02:00,
2013-01-10 16:12:00,41.0,40.0,30.20,North,357,2.0,9.0,98,0.02,,,0.62,,2013-01-11 00:12:00,
2013-01-10 16:22:00,41.0,40.0,30.20,North,357,2.0,9.0,98,0.02,,,0.62,,2013-01-11 00:22:00,
2013-01-10 16:32:00,43.0,42.0,30.20,NNE,22,10.0,23.0,96,0.02,,,0.64,,2013-01-11 00:32:00,
2013-01-10 16:42:00,43.0,42.0,30.20,NNE,22,10.0,23.0,96,0.02,,,0.64,,2013-01-11 00:42:00,
2013-01-10 16:52:00,44.0,43.0,30.19,WNW,302,5.0,23.0,95,0.01,,,0.64,,2013-01-11 00:52:00,
2013-01-10 17:02:00,44.0,42.0,30.20,NE,51,1.0,24.0,94,0.01,,,0.64,,2013-01-11 01:02:00,
2013-01-10 17:12:00,40.0,39.0,30.21,NNE,26,3.0,10.0,97,0.01,,,0.64,,2013-01-11 01:12:00,
2013-01-10 17:22:00,40.0,39.0,30.21,NNE,26,3.0,10.0,97,0.01,,,0.64,,2013-01-11 01:22:00,
2013-01-10 17:32:00,40.0,39.0,30.20,NNE,22,3.0,20.0,98,0.01,,,0.65,,2013-01-11 01:32:00,
2013-01-10 17:42:00,40.0,39.0,30.20,NNE,22,3.0,20.0,98,0.01,,,0.65,,2013-01-11 01:42:00,
2013-01-10 17:53:00,42.0,41.0,30.20,North,357,6.0,23.0,96,0.01,,,0.65,,2013-01-11 01:53:00,
2013-01-10 18:02:00,42.0,40.0,30.21,NNE,19,1.0,11.0,94,0.00,,,0.65,,2013-01-11 02:02:00,
2013-01-10 18:12:00,40.0,39.0,30.21,North,0,0.0,6.0,97,0.00,,,0.65,,2013-01-11 02:12:00,
2013-01-10 18:22:00,40.0,39.0,30.21,North,0,0.0,6.0,97,0.00,,,0.65,,2013-01-11 02:22:00,
2013-01-10 18:32:00,40.0,39.0,30.21,North,0,0.0,0.0,98,0.00,,,0.65,,2013-01-11 02:32:00,
2013-01-10 18:42:00,40.0,39.0,30.21,North,0,0.0,0.0,98,0.00,,,0.65,,2013-01-11 02:42:00,
2013-01-10 18:53:00,39.0,39.0,30.21,North,0,0.0,7.0,99,0.00,,,0.65,,2013-01-11 02:53:00,
2013-01-10 19:02:00,39.0,39.0,30.21,North,357,0.0,5.0,99,0.00,,,0.65,,2013-01-11 03:02:00,
2013-01-10 19:11:00,39.0,39.0,30.21,North,357,0.0,5.0,100,0.00,,,0.65,,2013-01-11 03:11:00,
2013-01-10 19:22:00,39.0,39.0,30.21,North,357,0.0,5.0,100,0.00,,,0.65,,2013-01-11 03:22:00,
2013-01-10 19:32:00,40.0,40.0,30.22,North,357,0.0,18.0,99,0.00,,,0.65,,2013-01-11 03:32:00,
2013-01-10 19:42:00,40.0,40.0,30.22,North,357,0.0,18.0,99,0.00,,,0.65,,2013-01-11 03:42:00,
2013-01-10 19:53:00,40.0,39.0,30.22,North,0,0.0,0.0,97,0.01,,,0.65,,2013-01-11 03:53:00,
2013-01-10 20:01:00,42.0,40.0,30.21,North,0,0.0,16.0,94,0.01,,,0.65,,2013-01-11 04:01:00,
2013-01-10 20:11:00,44.0,42.0,30.21,NNE,12,11.0,19.0,91,0.01,,,0.65,,2013-01-11 04:11:00,
2013-01-10 20:22:00,44.0,42.0,30.21,NNE,12,11.0,19.0,91,0.01,,,0.65,,2013-01-11 04:22:00,
2013-01-10 20:32:00,44.0,42.0,30.21,NNW,348,7.0,24.0,91,0.01,,,0.66,,2013-01-11 04:32:00,
2013-01-10 20:42:00,44.0,42.0,30.21,NNW,348,7.0,24.0,91,0.01,,,0.66,,2013-01-11 04:42:00,
2013-01-10 20:52:00,44.0,41.0,30.21,WNW,294,9.0,21.0,90,0.00,,,0.66,,2013-01-11 04:52:00,
2013-01-10 21:03:00,44.0,41.0,30.21,NW,308,2.0,15.0,89,0.00,,,0.66,,2013-01-11 05:03:00,
2013-01-10 21:12:00,42.0,40.0,30.21,North,357,6.0,27.0,91,0.00,,,0.66,,2013-01-11 05:12:00,
2013-01-10 21:22:00,42.0,40.0,30.21,North,357,6.0,27.0,91,0.00,,,0.66,,2013-01-11 05:22:00,
2013-01-10 21:32:00,42.0,40.0,30.21,WNW,282,8.0,13.0,91,0.00,,,0.66,,2013-01-11 05:32:00,
2013-01-10 21:42:00,42.0,40.0,30.21,WNW,282,8.0,13.0,91,0.00,,,0.66,,2013-01-11 05:42:00,
2013-01-10 21:52:00,44.0,41.0,30.21,WNW,282,8.0,19.0,88,0.00,,,0.66,,2013-01-11 05:52:00,
2013-01-10 22:02:00,44.0,39.0,30.21,NNE,15,3.0,13.0,83,0.00,,,0.66,,2013-01-11 06:02:00,
2013-01-10 22:12:00,44.0,39.0,30.21,NNE,15,3.0,13.0,83,0.00,,,0.66,,2013-01-11 06:12:00,
2013-01-10 22:22:00,44.0,40.0,30.21,North,352,4.0,26.0,87,0.00,,,0.66,,2013-01-11 06:22:00,
2013-01-10 22:32:00,44.0,40.0,30.21,NW,322,14.0,23.0,87,0.00,,,0.64,,2013-01-11 06:32:00,
2013-01-10 22:42:00,44.0,40.0,30.21,NW,322,14.0,23.0,87,0.00,,,0.64,,2013-01-11 06:42:00,
2013-01-10 22:52:00,44.0,40.0,30.21,North,354,6.0,23.0,87,0.00,,,0.64,,2013-01-11 06:52:00,
2013-01-10 23:02:00,45.0,41.0,30.21,North,350,3.0,16.0,87,0.00,,,0.64,,2013-01-11 07:02:00,
2013-01-10 23:11:00,45.0,40.0,30.21,NW,315,10.0,20.0,82,0.00,,,0.64,,2013-01-11 07:11:00,
2013-01-10 23:22:00,45.0,40.0,30.21,NW,315,10.0,20.0,82,0.00,,,0.64,,2013-01-11 07:22:00,
2013-01-10 23:32:00,44.0,39.0,30.20,North,357,0.0,8.0,82,0.00,,,0.60,,2013-01-11 07:32:00,
2013-01-10 23:42:00,44.0,39.0,30.21,North,357,9.0,23.0,82,0.00,,,0.60,,2013-01-11 07:42:00,
2013-01-10 23:52:00,44.0,39.0,30.21,North,357,9.0,23.0,82,0.00,,,0.60,,2013-01-11 07:52:00,